sat.trackr.live / text

‹ back to catalog

HULIANWANG DIGUI-75

NORAD 65307 · 2025-187C

PAYLOAD ACTIVE UNKNOWN

§ Identity

Operator
Country
PRC
Launch date
2025-08-25
Launch site
WSC
Launch vehicle
Mass (kg)
RCS (m²)

External: N2YO · Heavens-Above · Gunter

§ Orbital elements

Epoch: 2026-09-20T22:59:29.710464Z

Period
108.33 min
Inclination
50.0076°
Eccentricity
0.0000735
Mean motion
13.29325523 rev/d
Perigee alt
1,148.8 km
Apogee alt
1,149.9 km
Semi-major
7,527.4 km
B*
4.4422e-5
RAAN
222.2176°
Arg perigee
1.3854°
Mean anomaly
358.7020°
Rev number
5,244

§ Raw data

HULIANWANG DIGUI-751 65307U 25187C   26263.95798276 -.00000103  00000+0  44422-4 0  99902 65307  50.0076 222.2176 0000735   1.3854 358.7020 13.29325523 52444

JSON: /api/v1/satellites/65307 · /tle

For live sub-satellite position, see the globe view (requires WebGL).

§ Visibility from observer

Set your observer location to see the next 7 days of passes ≥ 10°. The values pass through the URL so the page stays shareable.

No JS? Fill the form by hand. The geolocation button needs JavaScript.